N7NKE Weather Reports


Display with metric or nautical units.
time (UTC)temp
F
wind
direction
speed
MPH
gust
MPH
rain 1hr
in
rain 24hr
in
rain mn
in
humidity
%
barometer
mb
20210622033005 81 326 2.0 3.0 0.00 0.00 0.00 48 1009.1
20210622032504 81 326 3.0 5.0 0.00 0.00 0.00 48 1009.1
20210622032005 82 341 2.0 3.0 0.00 0.00 0.00 48 1009.1
20210622031505 82 322 2.0 3.0 0.00 0.00 0.00 48 1009.1
20210622031006 82 331 2.0 3.0 0.00 0.00 0.00 49 1009.0
20210622030505 83 338 3.0 5.0 0.00 0.00 0.00 47 1009.0
20210622030005 83 327 2.0 5.0 0.00 0.00 0.00 47 1008.9
20210622025505 83 343 3.0 9.0 0.00 0.00 0.00 47 1008.9
20210622025006 84 341 3.0 6.0 0.00 0.00 0.00 46 1008.8
20210622024505 84 353 4.0 9.0 0.00 0.00 0.00 46 1008.7
20210622024005 85 348 3.0 8.0 0.00 0.00 0.00 47 1008.6
20210622023504 85 326 3.0 6.0 0.00 0.00 0.00 45 1008.5
20210622023005 85 339 5.0 8.0 0.00 0.00 0.00 44 1008.5
20210622022505 85 339 3.0 5.0 0.00 0.00 0.00 44 1008.4
20210622022006 86 355 3.0 7.0 0.00 0.00 0.00 44 1008.4
20210622021505 86 338 5.0 9.0 0.00 0.00 0.00 43 1008.3
20210622021005 86 334 5.0 12.0 0.00 0.00 0.00 44 1008.3
20210622020504 86 354 6.0 12.0 0.00 0.00 0.00 43 1008.3
20210622020005 86 339 6.0 12.0 0.00 0.00 0.00 42 1008.2
20210622015505 86 332 5.0 12.0 0.00 0.00 0.00 43 1008.3
20210622015005 87 328 5.0 10.0 0.00 0.00 0.00 44 1008.2
20210622014504 87 344 7.0 15.0 0.00 0.00 0.00 42 1008.1
20210622014005 87 331 15.0 15.0 0.00 0.00 0.00 42 1008.1
20210622013505 87 337 15.0 15.0 0.00 0.00 0.00 42 1008.2
20210622013005 87 347 7.0 14.0 0.00 0.00 0.00 42 1008.3
20210622012504 87 335 7.0 10.0 0.00 0.00 0.00 43 1008.1
20210622012005 88 345 6.0 10.0 0.00 0.00 0.00 42 1008.1
20210622011504 88 344 6.0 10.0 0.00 0.00 0.00 42 1008.1
20210622011005 88 342 6.0 13.0 0.00 0.00 0.00 44 1008.1
20210622010504 88 337 5.0 10.0 0.00 0.00 0.00 43 1008.3
20210622010005 89 341 6.0 12.0 0.00 0.00 0.00 43 1008.3
20210622005505 89 347 7.0 12.0 0.00 0.00 0.00 43 1008.3
20210622005006 89 337 3.0 8.0 0.00 0.00 0.00 45 1008.3
20210622004504 89 328 4.0 9.0 0.00 0.00 0.00 45 1008.4
20210622004005 90 339 6.0 12.0 0.00 0.00 0.00 43 1008.3
20210622003504 90 336 6.0 10.0 0.00 0.00 0.00 41 1008.3
20210622003005 91 336 7.0 12.0 0.00 0.00 0.00 42 1008.4
20210622002504 91 328 4.0 10.0 0.00 0.00 0.00 42 1008.3
20210622002005 92 346 5.0 10.0 0.00 0.00 0.00 40 1008.3
20210622001505 94 343 5.0 9.0 0.00 0.00 0.00 36 1008.3
20210622001006 95 337 3.0 5.0 0.00 0.00 0.00 36 1008.2
20210622000505 95 350 2.0 3.0 0.00 0.00 0.00 33 1008.0
20210622000005 96 358 2.0 3.0 0.00 0.00 0.00 33 1008.1
20210621235505 96 246 1.0 3.0 0.00 0.00 0.00 30 1008.1
20210621235005 96 245 3.0 5.0 0.00 0.00 0.00 33 1008.2
20210621234505 95 239 2.0 3.0 0.00 0.00 0.00 32 1008.2
20210621234006 95 177 2.0 5.0 0.00 0.00 0.00 32 1008.3
20210621233505 95 98 3.0 6.0 0.00 0.00 0.00 29 1008.3
20210621233005 95 165 2.0 7.0 0.00 0.00 0.00 28 1008.4
20210621232505 95 151 4.0 6.0 0.00 0.00 0.00 30 1008.4
20210621232006 95 171 2.0 6.0 0.00 0.00 0.00 30 1008.5
20210621231505 95 139 4.0 8.0 0.00 0.00 0.00 30 1008.5
20210621231005 95 147 1.0 3.0 0.00 0.00 0.00 32 1008.7
20210621230505 95 20 1.0 2.0 0.00 0.00 0.00 33 1008.7
20210621230005 94 284 1.0 2.0 0.00 0.00 0.00 31 1008.8
20210621225505 94 326 2.0 6.0 0.00 0.00 0.00 31 1008.8
20210621225005 94 5 1.0 3.0 0.00 0.00 0.00 31 1008.8
20210621224505 94 13 2.0 3.0 0.00 0.00 0.00 34 1008.8
20210621224005 94 5 2.0 3.0 0.00 0.00 0.00 34 1009.0
20210621223505 93 351 2.0 3.0 0.00 0.00 0.00 30 1009.0
20210621223005 93 301 1.0 3.0 0.00 0.00 0.00 30 1009.1
20210621222504 93 343 2.0 3.0 0.00 0.00 0.00 32 1009.2
20210621222005 93 72 1.0 2.0 0.00 0.00 0.00 35 1009.2
20210621221505 93 352 2.0 3.0 0.00 0.00 0.00 32 1009.2
20210621221006 93 340 2.0 3.0 0.00 0.00 0.00 33 1009.2
20210621220505 93 305 1.0 3.0 0.00 0.00 0.00 31 1009.3
20210621220004 93 308 2.0 3.0 0.00 0.00 0.00 31 1009.3
20210621215505 94 349 2.0 3.0 0.00 0.00 0.00 32 1009.4
20210621215006 93 11 2.0 3.0 0.00 0.00 0.00 32 1009.4
20210621214504 93 84 2.0 3.0 0.00 0.00 0.00 34 1009.4
20210621214005 93 83 3.0 6.0 0.00 0.00 0.00 34 1009.5
20210621213505 93 348 1.0 3.0 0.00 0.00 0.00 36 1009.5
20210621213006 92 73 1.0 3.0 0.00 0.00 0.00 36 1009.6
20210621212504 92 46 1.0 3.0 0.00 0.00 0.00 32 1009.7
20210621212005 92 94 2.0 3.0 0.00 0.00 0.00 33 1009.7
20210621211504 92 309 1.0 3.0 0.00 0.00 0.00 36 1009.8
20210621211005 92 33 2.0 3.0 0.00 0.00 0.00 37 1009.8
20210621210504 91 55 1.0 3.0 0.00 0.00 0.00 33 1009.9
20210621210004 91 343 1.0 2.0 0.00 0.00 0.00 39 1009.9
20210621205504 91 39 1.0 3.0 0.00 0.00 0.00 43 1010.0
20210621205005 91 328 2.0 3.0 0.00 0.00 0.00 38 1009.9
20210621204505 90 28 1.0 2.0 0.00 0.00 0.00 35 1009.9
20210621204005 90 5 1.0 3.0 0.00 0.00 0.00 36 1010.0
20210621203505 90 347 2.0 3.0 0.00 0.00 0.00 41 1010.0
20210621203005 89 79 2.0 3.0 0.00 0.00 0.00 39 1010.1
20210621202504 89 64 2.0 3.0 0.00 0.00 0.00 42 1010.1
20210621202005 89 343 2.0 3.0 0.00 0.00 0.00 42 1010.2
20210621201504 89 16 1.0 3.0 0.00 0.00 0.00 45 1010.2
20210621201005 88 300 1.0 2.0 0.00 0.00 0.00 46 1010.2
20210621200505 88 288 2.0 3.0 0.00 0.00 0.00 41 1010.3
20210621200005 88 317 1.0 3.0 0.00 0.00 0.00 41 1010.4
20210621195505 88 358 2.0 3.0 0.00 0.00 0.00 44 1010.4
20210621195005 88 341 2.0 3.0 0.00 0.00 0.00 44 1010.4
20210621194504 87 13 2.0 3.0 0.00 0.00 0.00 47 1010.5
20210621194005 87 14 2.0 3.0 0.00 0.00 0.00 42 1010.4
20210621193505 87 353 3.0 6.0 0.00 0.00 0.00 44 1010.4
20210621193005 87 11 2.0 6.0 0.00 0.00 0.00 48 1010.5
20210621192504 87 91 2.0 3.0 0.00 0.00 0.00 41 1010.4
20210621192005 87 32 1.0 3.0 0.00 0.00 0.00 47 1010.4
20210621191505 87 42 1.0 3.0 0.00 0.00 0.00 47 1010.4
20210621191005 86 71 2.0 3.0 0.00 0.00 0.00 44 1010.6
20210621190505 86 29 2.0 3.0 0.00 0.00 0.00 48 1010.6
20210621190005 86 17 2.0 3.0 0.00 0.00 0.00 43 1010.6
20210621185504 85 41 1.0 7.0 0.00 0.00 0.00 46 1010.7
20210621185005 85 82 2.0 6.0 0.00 0.00 0.00 44 1010.7
20210621184504 85 338 1.0 3.0 0.00 0.00 0.00 46 1010.8
20210621184005 85 354 1.0 3.0 0.00 0.00 0.00 46 1010.8
20210621183504 85 1 2.0 3.0 0.00 0.00 0.00 47 1010.8
20210621183005 84 348 2.0 3.0 0.00 0.00 0.00 46 1010.8
20210621182504 84 73 3.0 6.0 0.00 0.00 0.00 51 1010.8
20210621182005 84 325 2.0 5.0 0.00 0.00 0.00 51 1010.8
20210621181504 83 353 1.0 3.0 0.00 0.00 0.00 49 1010.8
20210621181005 83 6 1.0 3.0 0.00 0.00 0.00 47 1010.8
20210621180505 83 22 2.0 3.0 0.00 0.00 0.00 51 1010.9
20210621180005 82 40 1.0 3.0 0.00 0.00 0.00 48 1010.9
20210621175504 82 77 1.0 3.0 0.00 0.00 0.00 50 1011.0
20210621175005 81 83 2.0 3.0 0.00 0.00 0.00 48 1010.9
20210621174505 80 54 2.0 3.0 0.00 0.00 0.00 52 1011.0
20210621174004 79 89 2.0 5.0 0.00 0.00 0.00 54 1011.0
20210621173505 79 56 1.0 3.0 0.00 0.00 0.00 59 1011.0
20210621173005 78 74 2.0 3.0 0.00 0.00 0.00 59 1011.0
20210621172504 78 79 1.0 3.0 0.00 0.00 0.00 62 1011.0
20210621172005 77 104 1.0 3.0 0.00 0.00 0.00 62 1011.0
20210621171504 77 30 1.0 3.0 0.00 0.00 0.00 64 1010.9
20210621171006 76 38 1.0 3.0 0.00 0.00 0.00 66 1011.0
20210621170504 76 12 2.0 3.0 0.00 0.00 0.00 66 1010.9
20210621170004 75 48 1.0 3.0 0.00 0.00 0.00 67 1010.9
20210621165504 75 132 1.0 3.0 0.00 0.00 0.00 65 1010.9
20210621165005 75 38 1.0 2.0 0.00 0.00 0.00 68 1010.9
20210621164505 74 13 1.0 3.0 0.00 0.00 0.00 69 1010.8
20210621164005 74 0 0.0 2.0 0.00 0.00 0.00 68 1010.7
20210621163505 74 0 1.0 3.0 0.00 0.00 0.00 67 1010.8
20210621163005 73 21 2.0 3.0 0.00 0.00 0.00 69 1010.9
20210621162504 73 19 1.0 2.0 0.00 0.00 0.00 69 1010.9
20210621162005 73 36 1.0 3.0 0.00 0.00 0.00 69 1010.8
20210621161505 73 161 0.0 2.0 0.00 0.00 0.00 70 1010.8
20210621161005 73 163 1.0 3.0 0.00 0.00 0.00 70 1010.9
20210621160504 72 84 1.0 3.0 0.00 0.00 0.00 71 1010.9
20210621160005 72 88 1.0 3.0 0.00 0.00 0.00 70 1011.0
20210621155504 72 78 2.0 3.0 0.00 0.00 0.00 71 1010.9
20210621155005 71 99 1.0 2.0 0.00 0.00 0.00 72 1011.0
20210621154505 71 352 1.0 2.0 0.00 0.00 0.00 72 1011.0
20210621154005 71 88 1.0 2.0 0.00 0.00 0.00 73 1011.0
20210621153504 70 188 1.0 3.0 0.00 0.00 0.00 72 1011.0
20210621153005 70 94 2.0 3.0 0.00 0.00 0.00 74 1011.0
20210621152505 70 0 1.0 2.0 0.00 0.00 0.00 74 1011.0
20210621152005 69 12 1.0 3.0 0.00 0.00 0.00 74 1011.1
20210621151504 69 87 1.0 2.0 0.00 0.00 0.00 75 1011.1
20210621151004 69 101 1.0 2.0 0.00 0.00 0.00 75 1011.2
20210621150505 69 85 1.0 3.0 0.00 0.00 0.00 75 1011.2
20210621150005 68 171 1.0 2.0 0.00 0.00 0.00 74 1011.3
20210621145505 68 166 2.0 3.0 0.00 0.00 0.00 74 1011.3
20210621145005 67 108 1.0 2.0 0.00 0.00 0.00 76 1011.2
20210621144504 67 110 1.0 2.0 0.00 0.00 0.00 76 1011.2
20210621144005 67 92 0.0 1.0 0.00 0.00 0.00 78 1011.2
20210621143505 66 92 1.0 2.0 0.00 0.00 0.00 77 1011.2
20210621143005 66 91 1.0 2.0 0.00 0.00 0.00 77 1011.3
20210621142504 66 91 0.0 1.0 0.00 0.00 0.00 78 1011.2
20210621142005 66 91 0.0 1.0 0.00 0.00 0.00 77 1011.2
20210621141504 66 91 0.0 2.0 0.00 0.00 0.00 78 1011.1
20210621141004 66 91 1.0 2.0 0.00 0.00 0.00 77 1011.2
20210621140504 66 117 1.0 2.0 0.00 0.00 0.00 77 1011.1
20210621140004 66 140 1.0 2.0 0.00 0.00 0.00 78 1011.1
20210621135505 66 151 0.0 1.0 0.00 0.00 0.00 78 1011.0
20210621135005 66 151 1.0 2.0 0.00 0.00 0.00 78 1011.0
20210621134504 66 151 0.0 2.0 0.00 0.00 0.00 75 1011.0
20210621134005 66 155 0.0 2.0 0.00 0.00 0.00 76 1010.9
20210621133504 66 155 0.0 2.0 0.00 0.00 0.00 74 1011.0
20210621133005 65 169 1.0 3.0 0.00 0.00 0.00 74 1011.0
20210621132504 65 189 2.0 3.0 0.00 0.00 0.00 74 1010.8
20210621132005 65 189 2.0 3.0 0.00 0.00 0.00 74 1010.8
20210621131504 65 189 1.0 2.0 0.00 0.00 0.00 74 1010.9
20210621131005 65 189 1.0 2.0 0.00 0.00 0.00 74 1010.9
20210621130504 65 189 1.0 3.0 0.00 0.00 0.00 74 1010.8
20210621130004 65 162 1.0 2.0 0.00 0.00 0.00 73 1010.8
20210621125504 65 176 1.0 2.0 0.00 0.00 0.00 73 1010.7
20210621125005 65 175 1.0 3.0 0.00 0.00 0.00 73 1010.7
20210621124504 65 180 1.0 3.0 0.00 0.00 0.00 74 1010.6
20210621124005 65 163 1.0 3.0 0.00 0.00 0.00 73 1010.6
20210621123504 66 179 2.0 3.0 0.00 0.00 0.00 72 1010.5
20210621123005 66 187 1.0 3.0 0.00 0.00 0.00 72 1010.5
20210621122504 66 162 2.0 3.0 0.00 0.00 0.00 71 1010.5
20210621122004 66 169 2.0 3.0 0.00 0.00 0.00 71 1010.4
20210621121504 66 156 3.0 5.0 0.00 0.00 0.00 70 1010.4
20210621121004 66 186 2.0 3.0 0.00 0.00 0.00 70 1010.4
20210621120504 67 172 1.0 3.0 0.00 0.00 0.00 68 1010.3
20210621120005 67 192 1.0 2.0 0.00 0.00 0.00 68 1010.3
20210621115504 67 192 1.0 2.0 0.00 0.00 0.00 67 1010.3
20210621115005 68 186 2.0 3.0 0.00 0.00 0.00 66 1010.2
20210621114504 68 144 2.0 3.0 0.00 0.00 0.00 65 1010.2
20210621114005 69 142 2.0 3.0 0.00 0.00 0.00 63 1010.2
20210621113504 69 148 1.0 3.0 0.00 0.00 0.00 62 1010.1
20210621113005 69 167 1.0 3.0 0.00 0.00 0.00 62 1010.1
20210621112504 69 154 2.0 6.0 0.00 0.00 0.00 62 1010.1
20210621112005 70 206 0.0 3.0 0.00 0.00 0.00 61 1010.1
20210621111505 70 180 2.0 3.0 0.00 0.00 0.00 60 1010.1
20210621111005 70 166 2.0 3.0 0.00 0.00 0.00 59 1010.0
20210621110504 71 114 1.0 3.0 0.00 0.00 0.00 58 1010.0
20210621110005 71 174 1.0 3.0 0.00 0.00 0.00 58 1010.1
20210621105504 72 159 1.0 3.0 0.00 0.00 0.00 57 1010.1
20210621105005 72 153 2.0 3.0 0.00 0.00 0.00 56 1010.1
20210621104505 73 148 3.0 3.0 0.00 0.00 0.00 54 1010.1
20210621104005 74 149 2.0 7.0 0.00 0.00 0.00 53 1010.1
20210621103505 74 93 1.0 3.0 0.00 0.00 0.00 51 1010.1
20210621103005 74 237 1.0 3.0 0.00 0.00 0.00 51 1010.0
20210621102504 74 324 2.0 3.0 0.00 0.00 0.00 50 1010.0
20210621102005 74 339 2.0 5.0 0.00 0.00 0.00 50 1009.9
20210621101504 74 334 3.0 5.0 0.00 0.00 0.00 51 1009.9
20210621101005 75 330 2.0 3.0 0.00 0.00 0.00 50 1010.0
20210621100505 75 318 2.0 3.0 0.00 0.00 0.00 50 1009.9
20210621100005 75 335 2.0 3.0 0.00 0.00 0.00 50 1009.9
20210621095505 75 325 2.0 5.0 0.00 0.00 0.00 50 1009.9
20210621095004 75 331 3.0 9.0 0.00 0.00 0.00 50 1009.9
20210621094505 75 322 4.0 10.0 0.00 0.00 0.00 50 1009.9
20210621094005 75 343 3.0 6.0 0.00 0.00 0.00 50 1009.9
20210621093504 75 334 3.0 9.0 0.00 0.00 0.00 51 1009.9
20210621093005 75 337 3.0 9.0 0.00 0.00 0.00 52 1010.0
20210621092504 75 336 3.0 6.0 0.00 0.00 0.00 52 1010.0
20210621092005 75 331 3.0 5.0 0.00 0.00 0.00 51 1010.0
20210621091504 75 328 5.0 8.0 0.00 0.00 0.00 51 1010.1
20210621091005 75 334 4.0 10.0 0.00 0.00 0.00 51 1010.0
20210621090505 75 338 4.0 9.0 0.00 0.00 0.00 51 1010.1
20210621090004 75 333 5.0 8.0 0.00 0.00 0.00 52 1010.1
20210621085504 75 326 3.0 8.0 0.00 0.00 0.00 52 1010.1
20210621085005 75 325 4.0 8.0 0.00 0.00 0.00 51 1010.1
20210621084505 75 327 3.0 5.0 0.00 0.00 0.00 52 1010.1
20210621084005 76 336 3.0 6.0 0.00 0.00 0.00 51 1010.1
20210621083505 76 336 3.0 8.0 0.00 0.00 0.00 51 1010.0
20210621083006 76 339 5.0 12.0 0.00 0.00 0.00 51 1010.1
20210621082505 76 333 3.0 9.0 0.00 0.00 0.00 51 1010.1
20210621082005 76 330 5.0 10.0 0.00 0.00 0.00 52 1010.1
20210621081504 76 326 5.0 8.0 0.00 0.00 0.00 52 1010.1
20210621081006 76 333 5.0 9.0 0.00 0.00 0.00 52 1010.1
20210621080505 76 328 3.0 8.0 0.00 0.00 0.00 52 1010.1
20210621080004 76 327 5.0 8.0 0.00 0.00 0.00 52 1010.1
20210621075504 76 323 6.0 10.0 0.00 0.00 0.00 52 1010.2
20210621075005 76 342 5.0 8.0 0.00 0.00 0.00 52 1010.2
20210621074504 76 326 4.0 9.0 0.00 0.00 0.00 52 1010.1
20210621074005 76 334 4.0 10.0 0.00 0.00 0.00 52 1010.1
20210621073505 76 333 5.0 10.0 0.00 0.00 0.00 52 1010.1
20210621073005 76 317 5.0 10.0 0.00 0.00 0.00 51 1010.1
20210621072504 76 320 5.0 9.0 0.00 0.00 0.00 51 1010.1
20210621072005 76 319 4.0 8.0 0.00 0.00 0.00 52 1010.1
20210621071504 76 329 4.0 12.0 0.00 0.00 0.00 52 1010.1
20210621071005 76 322 5.0 12.0 0.00 0.00 0.00 53 1010.1
20210621070505 76 325 5.0 8.0 0.00 0.00 0.00 53 1010.1
20210621070005 76 326 3.0 7.0 0.00 0.00 0.00 53 1010.2
20210621065504 76 325 4.0 6.0 0.00 0.00 0.00 53 1010.1
20210621065004 76 334 3.0 7.0 0.00 0.00 0.00 53 1010.1
20210621064505 76 331 3.0 9.0 0.00 0.00 0.00 53 1010.2
20210621064005 76 323 5.0 6.0 0.00 0.00 0.00 54 1010.1
20210621063504 76 333 5.0 8.0 0.00 0.00 0.00 53 1010.1
20210621063005 76 321 5.0 10.0 0.00 0.00 0.00 54 1010.1
20210621062504 77 325 5.0 12.0 0.00 0.00 0.00 54 1010.2
20210621062005 77 329 5.0 10.0 0.00 0.00 0.00 54 1010.2
20210621061505 77 325 5.0 12.0 0.00 0.00 0.00 54 1010.3
20210621061005 77 319 7.0 13.0 0.00 0.00 0.00 54 1010.2
20210621060504 77 338 6.0 12.0 0.00 0.00 0.00 54 1010.3
20210621060005 77 327 6.0 13.0 0.00 0.00 0.00 54 1010.3
20210621055504 77 336 5.0 13.0 0.00 0.00 0.00 54 1010.3
20210621055005 77 335 5.0 10.0 0.00 0.00 0.00 53 1010.3
20210621054505 77 325 5.0 8.0 0.00 0.00 0.00 53 1010.2
20210621054005 78 325 5.0 10.0 0.00 0.00 0.00 52 1010.2
20210621053504 78 332 5.0 9.0 0.00 0.00 0.00 51 1010.3
20210621053005 78 327 5.0 8.0 0.00 0.00 0.00 51 1010.2
20210621052504 78 331 5.0 10.0 0.00 0.00 0.00 51 1010.2
20210621052004 78 326 5.0 13.0 0.00 0.00 0.00 50 1010.2
20210621051505 78 329 6.0 12.0 0.00 0.00 0.00 51 1010.2
20210621051005 78 332 5.0 9.0 0.00 0.00 0.00 50 1010.2
20210621050505 78 326 6.0 12.0 0.00 0.00 0.00 51 1010.2
20210621050005 78 331 5.0 13.0 0.00 0.00 0.00 51 1010.1
20210621045504 78 334 3.0 8.0 0.00 0.00 0.00 52 1010.2
20210621045005 79 327 5.0 9.0 0.00 0.00 0.00 52 1010.2
20210621044504 79 321 5.0 9.0 0.00 0.00 0.00 51 1010.1
20210621044005 79 323 6.0 12.0 0.00 0.00 0.00 51 1010.1
20210621043505 79 331 5.0 8.0 0.00 0.00 0.00 50 1010.0
20210621043005 79 313 5.0 12.0 0.00 0.00 0.00 51 1010.0
20210621042504 79 333 4.0 8.0 0.00 0.00 0.00 51 1010.0
20210621042005 79 326 6.0 13.0 0.00 0.00 0.00 51 1010.0
20210621041504 79 331 5.0 9.0 0.00 0.00 0.00 51 1010.0
20210621041005 80 339 5.0 8.0 0.00 0.00 0.00 51 1009.9
20210621040504 80 324 5.0 9.0 0.00 0.00 0.00 52 1009.9
20210621040004 80 333 5.0 9.0 0.00 0.00 0.00 52 1009.9
20210621035504 80 336 4.0 9.0 0.00 0.00 0.00 52 1009.9
20210621035005 80 331 4.0 8.0 0.00 0.00 0.00 52 1009.9
20210621034504 80 337 5.0 9.0 0.00 0.00 0.00 52 1009.9
20210621034005 81 331 3.0 5.0 0.00 0.00 0.00 52 1009.9
20210621033504 81 331 3.0 6.0 0.00 0.00 0.00 52 1009.9